Regional Weather Roundup
Issued by NWS Bismarck, ND

Home | Current Version | Previous Version | Text Only | Print | Product List | Glossary On
Versions: 1 2 3 4 5 6 7 8 9 10 11 12 13 14 15 16 17 18 19 20 21 22 23 24 25 26 27 28 29 30 31 32 33 34 35 36 37 38 39 40 41 42 43 44 45 46 47 48 49 50
000
ASUS43 KBIS 271010
RWRBIS

NWR BROADCAST TEXT
NATIONAL WEATHER SERVICE BISMARCK ND
500 AM CDT WED AUG 27 2014

NOTE: "FAIR" INDICATES FEW OR NO CLOUDS BELOW 12,000 FEET WITH NO
SIGNIFICANT WEATHER AND/OR OBSTRUCTIONS TO VISIBILITY.


CITY           SKY/WX    TMP DP  RH WIND       PRES   REMARKS
WILLISTON      CLEAR     54  52  93 S5        30.12S
MINOT          CLEAR     54  50  86 S6        30.13F
MINOT AFB      CLEAR     50  50  99 SW5       30.13S
BISMARCK       FOG       50  50 100 CALM      30.18S VSB 1/4
DICKINSON      CLEAR     49  47  93 SE8       30.14F
GARRISON         N/A     48  47  96 CALM      30.15S
HETTINGER ARPT FOG       48  47  96 CALM      30.17R VSB 1/4
JAMESTOWN      FOG       51  50  96 CALM      30.17F VSB 1/4
BEACH            N/A     50  50 100 S7        30.14F
CARRINGTON     FOG       45  45 100 SE3       30.18S VSB 1/2
CROSBY         FAIR      54  54 100 S13       30.10F
HARVEY         FOG       41  41 100 CALM      30.15F VSB 1/4
HAZEN          FOG       41  41 100 CALM      30.16F VSB 1/2
LINTON         FAIR      48  48 100 CALM      30.17S FOG
MANDAN         FOG       50  50 100 E5        30.18S VSB<1/4
OAKES            N/A     57  57 100 NE5       30.17F
RUGBY          FAIR      48  48 100 SE3       30.15S
STANLEY        FAIR      50  50 100 S5        30.14S
TIOGA          FAIR      48  48 100 SE3       30.16S FOG
WATFORD CITY   FAIR      48  48 100 SE6       30.11F
$$

CITY           SKY/WX    TMP DP  RH WIND       PRES   REMARKS
GRAND FORKS    CLEAR     49  48  97 S3        30.16S
GRAND FORKS AF CLEAR     50  50  99 W2        30.16F
DEVILS LAKE    CLEAR     55  48  76 W7        30.15S
FARGO          CLEAR     52  52 100 CALM      30.18S
CANDO          FOG       45  45 100 CALM      30.16S VSB 1/2
CAVALIER       FAIR      46  45  93 CALM      30.15S
GRAFTON        FAIR      50  50 100 W5        30.15S FOG
GWINNER        CLOUDY    57  57 100 E3        30.19S
LANGDON        FAIR      41  39  93 SW6       30.16S
ROLLA          FAIR      50  50 100 SW7       30.16S
WALHALLA       FAIR      46  46 100 CALM      30.15S
$$

CITY           SKY/WX    TMP DP  RH WIND       PRES   REMARKS
ABERDEEN       MOCLDY    57  55  93 E5        30.16S
MOBRIDGE       CLEAR     53  52  96 E7        30.13F
BUFFALO          N/A     50  49  96 NE5       30.09F
RAPID CITY     MOCLDY    58  54  86 N3        30.14F
GLASGOW        CLEAR     54  50  86 E12       30.05S
SIDNEY           N/A     50  50 100 CALM      30.12S VSB 1/2
WOLF POINT     CLEAR     52  47  83 NE5       30.08S
GLENDIVE       CLEAR     54  52  94 CALM      30.13S
MILES CITY     CLEAR     57  53  86 SE9       30.09F
BAKER          CLEAR     51  50  96 E5        30.14F
$$

CITY           SKY/WX    TMP DP  RH WIND       PRES   REMARKS
BILLINGS       CLEAR     58  49  72 SW10      30.10S
GREAT FALLS    FAIR      54  43  66 S10       30.06F
REGINA         PTCLDY    50  48  93 SE9       30.04S
ESTEVAN        PTCLDY    54  52  94 S7        30.10S
$$



USA.gov is the U.S. government's official web portal to all federal, state and local government web resources and services.